Flag for France Weather past 2 weeks in Paris, France

Now
41 °F

Broken clouds.


Feels Like: 36 °F
Forecast: 35 / 44 °F
Wind: 8 mph from West

Location: Villacoublay

Current Time: Dec 25, 2014 at 11:09:28 AM

Latest Report: Dec 25, 2014 at 10:30 AM


Visibility: N/A

Pressure: 30.39 "Hg

Humidity: 87%

Dew point: 37 °F

Location of ParisLocation

Historic Weather in Paris — Graph

°F

Paris temperature yesterday

Maximum temperature yesterday: 50 °F (at 12:00 PM)
Minimum temperature yesterday: 41 °F (at 11:30 PM)
Average temperature yesterday: 46 °F

Past Weeks' High & Low Weather Summary

 TemperatureHumidityPressure
High55 °F (Dec 18, 11:00 AM)100% (Dec 10, 11:00 AM)30.54 "Hg (Dec 10, 11:00 AM)
Low30 °F (Dec 14, 6:00 AM)66% (Dec 16, 1:30 PM)29.59 "Hg (Dec 12, 1:30 PM)
Average45 °F89%30.11 "Hg
* Reported Dec 10 10:00 AM — Dec 25 10:00 AM, Paris, Weather by CustomWeather, © 2014

Note: Actual official high and low records may vary slightly from our data, if they occured in-between our weather recording intervals... More about our weather records

Advertising

Paris weather history for previous 24 hours

 ConditionsComfort  
Time TempWeatherWind HumidityBarometerVisibility
10:00 AM
Dec 25
41 °FClear.8 mph87%30.39 "HgN/A
9:30 AM41 °FBroken clouds.8 mph87%30.39 "HgN/A
9:00 AM39 °FMostly cloudy.6 mph93%30.36 "HgN/A
8:30 AM39 °FOvercast.5 mph93%30.36 "HgN/A
8:00 AM39 °FClear.3 mph93%30.36 "HgN/A
7:30 AM39 °FClear.3 mph93%30.36 "HgN/A
7:00 AM39 °FClear.3 mph93%30.36 "HgN/A
6:30 AM41 °FOvercast.6 mph87%30.33 "HgN/A
6:00 AM41 °FMostly cloudy.6 mph87%30.33 "HgN/A
5:30 AM41 °FClear.5 mph93%30.33 "HgN/A
4:30 AM41 °FPassing clouds.3 mph100%30.33 "HgN/A
4:00 AM43 °FPassing clouds.5 mph93%30.33 "HgN/A
3:30 AM43 °FOvercast.5 mph93%30.33 "HgN/A
3:00 AM43 °FOvercast.5 mph93%30.33 "HgN/A
2:30 AM43 °FOvercast.2 mph93%30.30 "HgN/A
2:00 AM43 °FOvercast.2 mph93%30.30 "HgN/A
1:30 AM43 °FOvercast.5 mph93%30.30 "HgN/A
1:00 AM43 °FOvercast.3 mph87%30.30 "HgN/A
12:30 AM43 °FOvercast.5 mph87%30.30 "HgN/A
12:00 AM41 °FPassing clouds.6 mph93%30.27 "HgN/A
11:30 PM
Dec 24
41 °FPassing clouds.5 mph93%30.30 "HgN/A
11:00 PM43 °FPassing clouds.6 mph87%30.27 "HgN/A
10:30 PM45 °FOvercast.5 mph87%30.27 "HgN/A
10:00 PM45 °FOvercast.6 mph87%30.27 "HgN/A
9:30 PM45 °FMostly cloudy.6 mph93%30.27 "HgN/A
9:00 PM45 °FPassing clouds.6 mph87%30.24 "HgN/A
8:30 PM45 °FMostly cloudy.6 mph87%30.24 "HgN/A
8:00 PM46 °FMostly cloudy.10 mph87%30.24 "HgN/A
7:30 PM46 °FPartly cloudy.13 mph87%30.21 "Hg6 mi
7:00 PM46 °FDrizzle. Fog.14 mph93%30.21 "Hg3 mi
6:30 PM50 °FDrizzle. Fog.8 mph94%30.18 "Hg3 mi
6:00 PM50 °FDrizzle. Fog.10 mph94%30.18 "Hg2 mi
5:30 PM50 °FDrizzle. Fog.10 mph94%30.15 "Hg3 mi
5:00 PM50 °FDrizzle. Fog.12 mph94%30.15 "Hg2 mi
4:30 PM50 °FDrizzle. Fog.13 mph94%30.15 "Hg2 mi
4:00 PM50 °FDrizzle. Mostly cloudy.13 mph94%30.15 "Hg4 mi
3:30 PM50 °FDrizzle. Mostly cloudy.10 mph94%30.15 "Hg4 mi
3:00 PM50 °FDrizzle. Mostly cloudy.13 mph88%30.15 "Hg4 mi
2:30 PM50 °FMostly cloudy.13 mph88%30.15 "HgN/A
2:00 PM50 °FMostly cloudy.12 mph88%30.15 "HgN/A
1:30 PM50 °FMostly cloudy.12 mph88%30.15 "HgN/A
1:00 PM50 °FOvercast.10 mph88%30.18 "HgN/A
12:30 PM50 °FMostly cloudy.14 mph88%30.18 "HgN/A
12:00 PM50 °FPartly sunny.14 mph82%30.18 "HgN/A
11:30 AM48 °FMostly cloudy.13 mph87%30.21 "HgN/A
11:00 AM48 °FLow clouds.10 mph87%30.18 "HgN/A
Weather by CustomWeather, © 2014

See weather overviewHow to use our weather pages